User: anonymous
Location: Phoenix
(33.4480°N, 112.0730°W)
Time: 05:42:36
(UTC-07:00)
Language:

HST - Orbit

View from above orbital plane
View from above orbital plane
View from above satellite
View from above satellite

Ground track
Ground track

The orbit data is extracted from the following two-line orbital elements,

1 20580U 90037B   14209.23583709  .00001501  00000-0  89875-4 0   648
2 20580 028.4702 127.2605 0003171 007.0186 125.1643 15.05558360130911
Epoch (UTC): 28 July 2014 05:39:36
Eccentricity: 0.0003171
inclination: 28.4702°
perigee height: 547 km
apogee height: 552 km
right ascension of ascending node: 127.2605°
argument of perigee: 7.0186°
revolutions per day: 15.05558360
mean anomaly at epoch: 125.1643°
orbit number at epoch: 13091

The dashed part of the orbit path shows where the satellite is in the earth's shadow,  

DLR